Regional Weather Roundup
Issued by NWS

Home | Current Version | Previous Version | Text Only | Print | Product List | Glossary Off
Versions: 1 2 3 4 5 6 7 8 9 10 11 12 13 14 15 16 17 18 19 20 21 22 23 24 25 26 27 28 29 30 31 32 33 34 35 36 37 38 39 40 41 42 43 44 45 46 47 48 49 50

463
ASUS43 KDTX 140501
RWRMI
MICHIGAN HOURLY REGIONAL WEATHER ROUNDUP
NATIONAL WEATHER SERVICE DETROIT/PONTIAC MI
1200 AM EST THU DEC 14 2017

NOTE: "FAIR" INDICATES FEW OR NO CLOUDS BELOW 12,000 FEET WITH NO
SIGNIFICANT WEATHER AND/OR OBSTRUCTION TO VISIBILITY.

MIZ047>049-052>055-059>063-066>070-074>076-081>083-140600-
SOUTHEAST LOWER MICHIGAN

CITY           SKY/WX    TMP DP  RH WIND       PRES   REMARKS
ADRIAN         LGT SNOW  22  19  89 N16       29.52R FOG     WCI   8
ALMA           CLOUDY    17  13  86 N12G17    29.66R WCI   4
ANN ARBOR      LGT SNOW  20  17  88 NW12      29.52R FOG     WCI   8
BAD AXE        FLURRIES  20  18  89 NE6       29.59R WCI  13
CARO           FLURRIES  20  18  91 N9        29.59R WCI   9
DETROIT CITY   LGT SNOW  19  16  88 N12       29.52R FOG     WCI   7
DETROIT        LGT SNOW  22  17  81 N15       29.51R BLWGSNOWWCI   9
FLINT          LGT SNOW  20  17  88 N14       29.58R FOG     WCI   7
GROSSE ILE     LGT SNOW  22  19  89 N16       29.48R WCI   8
HILLSDALE      LGT SNOW  21  18  86 N14G20    29.52R WCI   8
HOWELL         FLURRIES  19  18  93 N9        29.55R WCI   9

CITY           SKY/WX    TMP DP  RH WIND       PRES   REMARKS
JACKSON        LGT SNOW  20  15  81 NW12G22   29.56R WCI   8
LAMBERTVILLE   LGT SNOW  24  22  91 N6        29.49R WCI  17
LANSING        LGT SNOW  20  17  88 N10       29.61R FOG     WCI   9
LAPEER         LGT SNOW  21  18  88 N8        29.56R WCI  11
MASON          LGT SNOW  21  15  80 N12       29.58R WCI   9
MONROE         LGT SNOW  22  18  84 N14G21    29.49R WCI   9
MT. CLEMENS    FLURRIES  19  18  93 N12       29.51R WCI   7
PONTIAC        LGT SNOW  20  17  88 N10       29.51R FOG     WCI   9
PORT HOPE        N/A     24  17  74 NE18      29.59R WCI  10
PORT HURON     CLOUDY    19  16  86 NE12      29.54R WCI   7
TRI CITIES     LGT SNOW  18  15  88 N17       29.64R FOG     WCI   3
MIDLAND        CLOUDY    18  12  77 N13       29.65R WCI   5
TROY           CLOUDY    21  17  87 N9        29.54R WCI  10
SAGINAW HB     LGT SNOW  19  18  93 N17       29.61R WCI   4
$$
MIZ043>046-050>051-056>058-064>065-071>073-077>080-140600-
SOUTHWEST LOWER MICHIGAN

CITY           SKY/WX    TMP DP  RH WIND       PRES   REMARKS
BATTLE CREEK   LGT SNOW  19  16  88 N13       29.61R FOG     WCI   6
BENTON HARBOR  LGT SNOW  22  17  81 NE7       29.69R WCI  13
BIG RAPIDS     CLOUDY    13   8  81 N9        29.69R WCI   1
COLDWATER      CLOUDY    20  17  86 N13       29.58R WCI   7
HOLLAND        PTCLDY    19  13  77 N10G20    29.70R WCI   7
GRAND RAPIDS   CLOUDY    18  13  80 N15       29.67R WCI   4
IONIA          CLOUDY    18  13  82 N13G20    29.64R WCI   4
KALAMAZOO      LGT SNOW  20  15  81 N15       29.63R WCI   6
LUDINGTON      MOCLDY    15  10  79 NE3       29.76R
MARSHALL       LGT SNOW  19  16  87 N6        29.59R WCI  11
MOUNT PLEASANT CLOUDY    17  10  74 N9        29.66R WCI   5
MUSKEGON       PTCLDY    18  10  71 N12       29.74R WCI   5
SOUTH HAVEN    CLOUDY    20  15  80 N8        29.69R WCI  11
$$
MIZ016>042-140600-
NORTHERN LOWER MICHIGAN

CITY           SKY/WX    TMP DP  RH WIND       PRES   REMARKS
ALPENA         CLOUDY    13   8  81 NW7       29.70R WCI   3
BEAVER ISLAND  CLOUDY    14   9  79 N6        29.78R WCI   5
BELLAIRE       CLOUDY     4   3  96 CALM      29.77R
CADILLAC       CLOUDY     9   6  89 N5        29.68R WCI   0
CHARLEVOIX     CLOUDY    16   8  72 N12       29.79R WCI   3
FRANKFORT      CLEAR     20   8  58 N6        29.77R WCI  13
GAYLORD        CLOUDY     6   2  83 N3        29.68R
GRAYLING       CLEAR      6   1  81 NW8       29.70R WCI  -7
HARBOR SPRINGS CLEAR      4   1  87 CALM      29.76R
HOUGHTON LAKE  CLEAR     11   6  81 N10G20    29.68R WCI  -3
MANISTEE       FLURRIES  16  11  80 NE5       29.76R WCI   9
OSCODA         FLURRIES  15  10  82 N14       29.66R WCI   0
PELLSTON       CLEAR     -1  -3  91 NW5       29.77R WCI -11
ROGERS CITY    FLURRIES  15   8  73 N12G17    29.73R WCI   2
TRAVERSE CITY  CLOUDY    18  11  74 NE12      29.75R WCI   5
$$
MIZ007>008-015-140600-
EASTERN UPPER MICHIGAN

CITY           SKY/WX    TMP DP  RH WIND       PRES   REMARKS
KINROSS        CLOUDY    -5  -8  87 N6        29.77R WCI -18
MACKINAC ISLAN FLURRIES   7   3  83 N8        29.76R WCI  -5
NEWBERRY       FLURRIES   7   5  91 NW3       29.77R
S. S. MARIE    CLOUDY     0  -7  72 NE5       29.78R WCI -10
MUNISING         N/A     21  17  84 N14       29.80R WCI   8
$$
MIZ004>006-011>014-085-140600-
CENTRAL UPPER MICHIGAN

CITY           SKY/WX    TMP DP  RH WIND       PRES   REMARKS
MANISTIQUE     CLOUDY     8   3  80 W3        29.79R
ESCANABA       FLURRIES  11   7  84 NW3       29.82S
MENOMINEE      FLURRIES   6   4  91 NW3       29.86R
$$
MIZ001>003-009>011-084-140600-
WESTERN UPPER MICHIGAN

CITY           SKY/WX    TMP DP  RH WIND       PRES   REMARKS
IRON MOUNTAIN  CLOUDY    16   7  67 N13       29.80R WCI   2
HOUGHTON       FLURRIES  13   5  70 N8        29.84R WCI   2
COPPER HARBOR    N/A     16  11  80 NE14G22   29.85S WCI   2
IRONWOOD       FLURRIES  14  10  84 CALM      29.88R
$$

ABBREVIATIONS USED IN REMARKS
   TC - TEMPERATURE IN CELSIUS
  WCI - WIND CHILL INDEX
   HX - HEAT INDEX
  VSB - VISIBILITY





USA.gov is the U.S. government's official web portal to all federal, state and local government web resources and services.